| time (UTC) | temp F | wind direction | speed knots | gust knots | rain 1hr in | rain 24hr in | rain mn in | humidity % | barometer mb |
| 20260506001543 | 39 | 236 | 2.6 | 11.3 | 0.00 | 0.00 | 0.00 | 64 | 1013.4 |
| 20260506000056 | 39 | 246 | 5.2 | 8.7 | 0.00 | 0.00 | 0.00 | 63 | 1013.4 |
| 20260505234541 | 39 | 229 | 1.7 | 8.7 | 0.00 | 0.00 | 0.00 | 63 | 1013.4 |
| 20260505233028 | 39 | 237 | 2.6 | 7.8 | 0.00 | 0.00 | 0.00 | 63 | 1013.5 |
| 20260505231526 | 40 | 235 | 3.5 | 8.7 | 0.00 | 0.00 | 0.00 | 61 | 1013.4 |
| 20260505230018 | 40 | 234 | 2.6 | 7.8 | 0.00 | 0.00 | 0.00 | 60 | 1013.5 |
| 20260505224511 | 40 | 238 | 3.5 | 7.8 | 0.00 | 0.00 | 0.00 | 59 | 1013.5 |
| 20260505223008 | 41 | 243 | 1.7 | 4.3 | 0.00 | 0.00 | 0.00 | 58 | 1013.4 |
| 20260505221504 | 41 | 226 | 0.9 | 3.5 | 0.00 | 0.00 | 0.00 | 56 | 1013.3 |
| 20260505220010 | 42 | 259 | 0.9 | 7.8 | 0.00 | 0.00 | 0.00 | 55 | 1013.3 |
| 20260505214511 | 43 | 238 | 1.7 | 7.0 | 0.00 | 0.00 | 0.00 | 54 | 1013.2 |
| 20260505213004 | 43 | 251 | 2.6 | 14.8 | 0.00 | 0.00 | 0.00 | 52 | 1013.1 |
| 20260505211601 | 43 | 262 | 6.1 | 11.3 | 0.00 | 0.00 | 0.00 | 51 | 1013.0 |
| 20260505210100 | 44 | 244 | 5.2 | 10.4 | 0.00 | 0.00 | 0.00 | 50 | 1012.9 |
| 20260505204601 | 44 | 234 | 5.2 | 14.8 | 0.00 | 0.00 | 0.00 | 49 | 1012.8 |
| 20260505203101 | 45 | 240 | 7.8 | 13.0 | 0.00 | 0.00 | 0.00 | 48 | 1012.8 |
| 20260505201552 | 45 | 260 | 5.2 | 11.3 | 0.00 | 0.00 | 0.00 | 47 | 1012.7 |
| 20260505200047 | 45 | 244 | 4.3 | 8.7 | 0.00 | 0.00 | 0.00 | 51 | 1012.7 |
| 20260505194553 | 47 | 229 | 0.9 | 4.3 | 0.00 | 0.00 | 0.00 | 48 | 1012.5 |
| 20260505193039 | 47 | 231 | 0.9 | 8.7 | 0.00 | 0.00 | 0.00 | 46 | 1012.5 |
| 20260505191547 | 48 | 200 | 1.7 | 7.8 | 0.00 | 0.00 | 0.00 | 45 | 1012.3 |
| 20260505190038 | 49 | 233 | 0.0 | 7.0 | 0.00 | 0.00 | 0.00 | 44 | 1012.2 |
| 20260505184536 | 50 | 221 | 3.5 | 10.4 | 0.00 | 0.00 | 0.00 | 43 | 1012.0 |
| 20260505183028 | 51 | 236 | 7.8 | 9.6 | 0.00 | 0.00 | 0.00 | 41 | 1011.9 |
| 20260505181526 | 51 | 259 | 5.2 | 12.2 | 0.00 | 0.00 | 0.00 | 42 | 1011.9 |
| 20260505180032 | 52 | 246 | 0.0 | 7.0 | 0.00 | 0.00 | 0.00 | 42 | 1011.7 |
| 20260505174522 | 52 | 181 | 1.7 | 8.7 | 0.00 | 0.00 | 0.00 | 41 | 1011.5 |
| 20260505173025 | 53 | 247 | 6.1 | 11.3 | 0.00 | 0.00 | 0.00 | 39 | 1011.5 |
| 20260505171521 | 54 | 211 | 1.7 | 9.6 | 0.00 | 0.00 | 0.00 | 42 | 1011.4 |
| 20260505170014 | 54 | 246 | 1.7 | 8.7 | 0.00 | 0.00 | 0.00 | 43 | 1011.3 |
| 20260505164512 | 54 | 215 | 0.9 | 11.3 | 0.00 | 0.00 | 0.00 | 50 | 1011.3 |
| 20260505163015 | 54 | 207 | 4.3 | 10.4 | 0.00 | 0.00 | 0.00 | 53 | 1011.2 |
| 20260505161510 | 54 | 182 | 4.3 | 9.6 | 0.00 | 0.00 | 0.00 | 52 | 1011.1 |
| 20260505153012 | 56 | 184 | 3.5 | 11.3 | 0.00 | 0.00 | 0.00 | 49 | 1011.1 |
| 20260505151514 | 56 | 200 | 4.3 | 12.2 | 0.00 | 0.00 | 0.00 | 54 | 1011.2 |
| 20260505130105 | 55 | 192 | 7.0 | 13.0 | 0.00 | 0.00 | 0.00 | 51 | 1011.9 |
| 20260505124600 | 54 | 185 | 6.1 | 12.2 | 0.00 | 0.00 | 0.00 | 53 | 1011.9 |
| 20260505123100 | 53 | 190 | 5.2 | 9.6 | 0.00 | 0.00 | 0.00 | 53 | 1011.9 |
| 20260505121622 | 53 | 202 | 4.3 | 13.0 | 0.00 | 0.00 | 0.00 | 52 | 1012.0 |
| 20260505120042 | 53 | 213 | 4.3 | 12.2 | 0.00 | 0.00 | 0.00 | 55 | 1012.1 |
| 20260505114541 | 52 | 186 | 7.0 | 12.2 | 0.00 | 0.00 | 0.00 | 56 | 1012.2 |
| 20260505113041 | 52 | 165 | 4.3 | 10.4 | 0.00 | 0.00 | 0.00 | 57 | 1012.3 |
| 20260505111540 | 52 | 154 | 7.0 | 11.3 | 0.00 | 0.00 | 0.00 | 57 | 1012.2 |
| 20260505101540 | 49 | 148 | 4.3 | 8.7 | 0.00 | 0.00 | 0.00 | 62 | 1012.4 |
| 20260505100046 | 49 | 150 | 3.5 | 8.7 | 0.00 | 0.00 | 0.00 | 61 | 1012.4 |
| 20260505094542 | 49 | 158 | 4.3 | 8.7 | 0.00 | 0.00 | 0.00 | 59 | 1012.5 |
| 20260505093037 | 49 | 150 | 6.1 | 13.0 | 0.00 | 0.00 | 0.00 | 60 | 1012.7 |
| 20260505091549 | 50 | 160 | 4.3 | 8.7 | 0.00 | 0.00 | 0.00 | 59 | 1012.5 |
| 20260505090039 | 50 | 141 | 2.6 | 6.1 | 0.00 | 0.00 | 0.00 | 55 | 1012.5 |
| 20260505084534 | 50 | 140 | 0.9 | 6.1 | 0.00 | 0.00 | 0.00 | 48 | 1012.4 |
| 20260505083045 | 49 | 127 | 2.6 | 6.1 | 0.00 | 0.00 | 0.00 | 49 | 1012.4 |
| 20260505081539 | 47 | 275 | 0.0 | 2.6 | 0.00 | 0.00 | 0.00 | 52 | 1012.6 |
| 20260505080046 | 46 | 251 | 1.7 | 9.6 | 0.00 | 0.00 | 0.00 | 51 | 1012.6 |
| 20260505074540 | 45 | 234 | 0.0 | 6.1 | 0.00 | 0.00 | 0.00 | 53 | 1012.6 |
| 20260505073045 | 45 | 254 | 2.6 | 7.8 | 0.00 | 0.00 | 0.00 | 54 | 1012.6 |
| 20260505071541 | 44 | 258 | 4.3 | 12.2 | 0.00 | 0.00 | 0.00 | 55 | 1012.7 |
| 20260505070036 | 43 | 279 | 3.5 | 7.8 | 0.00 | 0.00 | 0.00 | 58 | 1012.7 |
| 20260505064533 | 42 | 250 | 2.6 | 7.8 | 0.00 | 0.00 | 0.00 | 60 | 1012.7 |
| 20260505063044 | 41 | 243 | 1.7 | 7.8 | 0.00 | 0.00 | 0.00 | 62 | 1012.6 |
| 20260505061535 | 40 | 212 | 1.7 | 7.0 | 0.00 | 0.00 | 0.00 | 66 | 1012.7 |
| 20260505060032 | 39 | 187 | 0.0 | 0.9 | 0.00 | 0.00 | 0.00 | 71 | 1012.5 |
| 20260505054542 | 38 | 183 | 0.0 | 1.7 | 0.00 | 0.00 | 0.00 | 72 | 1012.7 |
| 20260505053029 | 38 | 188 | 0.0 | 1.7 | 0.00 | 0.00 | 0.00 | 73 | 1012.6 |
| 20260505051538 | 37 | 253 | 0.0 | 4.3 | 0.00 | 0.00 | 0.00 | 75 | 1012.6 |
| 20260505041543 | 34 | 195 | 0.0 | 1.7 | 0.00 | 0.00 | 0.00 | 87 | 1012.6 |
| 20260505040027 | 34 | 179 | 0.9 | 3.5 | 0.00 | 0.00 | 0.00 | 86 | 1012.5 |
| 20260505034525 | 34 | 200 | 0.0 | 1.7 | 0.00 | 0.00 | 0.00 | 86 | 1012.3 |
| 20260505033025 | 34 | 196 | 0.0 | 1.7 | 0.00 | 0.00 | 0.00 | 87 | 1012.3 |
| 20260505031529 | 35 | 222 | 0.0 | 1.7 | 0.00 | 0.00 | 0.00 | 86 | 1012.2 |
| 20260505030022 | 35 | 224 | 0.0 | 1.7 | 0.00 | 0.00 | 0.00 | 86 | 1012.2 |
| 20260505024520 | 35 | 207 | 0.0 | 2.6 | 0.00 | 0.00 | 0.00 | 85 | 1012.2 |
| 20260505023019 | 36 | 190 | 0.9 | 2.6 | 0.00 | 0.00 | 0.00 | 82 | 1012.2 |
| 20260505021518 | 37 | 175 | 0.9 | 1.7 | 0.00 | 0.00 | 0.00 | 80 | 1012.3 |
| 20260505020013 | 37 | 194 | 0.0 | 1.7 | 0.00 | 0.00 | 0.00 | 79 | 1012.2 |
| 20260505014516 | 38 | 165 | 0.0 | 1.7 | 0.00 | 0.00 | 0.00 | 77 | 1012.2 |
| 20260505013010 | 38 | 255 | 0.0 | 1.7 | 0.00 | 0.00 | 0.00 | 77 | 1012.1 |
| 20260505011509 | 39 | 254 | 0.9 | 1.7 | 0.00 | 0.00 | 0.00 | 78 | 1012.0 |
| 20260505010016 | 39 | 252 | 0.0 | 1.7 | 0.00 | 0.00 | 0.00 | 77 | 1011.8 |
| 20260505004512 | 40 | 192 | 0.0 | 5.2 | 0.00 | 0.00 | 0.00 | 78 | 1011.7 |
| 20260505003009 | 40 | 224 | 0.0 | 2.6 | 0.00 | 0.00 | 0.00 | 81 | 1011.5 |